EN

Hourly Weather Vegachi

Today, 25 November, Wednesday

Time Temperature Precipitation Wind Pressure Humidity
00:00 +20°C° 2 mm 1 mps 673 mmHg 98%
01:00 +20°C° 2 mm 1 mps 673 mmHg 98%
02:00 +20°C° 1 mm 1 mps 673 mmHg 98%
03:00 +20°C° 1 mm 1 mps 673 mmHg 98%
04:00 +20°C° 1 mm 1 mps 673 mmHg 98%
05:00 +20°C° 0.7 mm 1 mps 673 mmHg 98%
06:00 +18°C° 0.7 mm 0 mps 674 mmHg 97%
07:00 +19°C° 0.7 mm 0 mps 674 mmHg 97%
08:00 +20°C° 0.5 mm 0 mps 675 mmHg 94%
09:00 +22°C° 0.5 mm 0 mps 675 mmHg 90%
10:00 +23°C° 0.5 mm 0 mps 675 mmHg 87%
11:00 +27°C° 0.4 mm 1 mps 675 mmHg 79%
12:00 +28°C° 0.4 mm 1 mps 674 mmHg 70%
13:00 +29°C° 0.4 mm 1 mps 674 mmHg 62%
14:00 +28°C° 0.3 mm 1 mps 673 mmHg 68%
15:00 +27°C° 0.3 mm 1 mps 672 mmHg 74%
16:00 +26°C° 0.3 mm 1 mps 672 mmHg 81%
17:00 +25°C° 0.7 mm 1 mps 672 mmHg 86%
18:00 +23°C° 0.7 mm 1 mps 672 mmHg 92%
19:00 +22°C° 0.7 mm 1 mps 672 mmHg 97%
20:00 +22°C° 1 mm 1 mps 673 mmHg 97%
21:00 +21°C° 1 mm 1 mps 673 mmHg 97%
22:00 +21°C° 1 mm 1 mps 674 mmHg 97%
23:00 +21°C° 1 mm 1 mps 673 mmHg 97%

Tomorrow, 26 November, Thursday

Time Temperature Precipitation Wind Pressure Humidity
00:00 +20°C° 1 mm 1 mps 673 mmHg 98%
01:00 +20°C° 1 mm 1 mps 673 mmHg 98%
02:00 +20°C° 1.4 mm 1 mps 673 mmHg 98%
03:00 +20°C° 1.4 mm 1 mps 673 mmHg 98%
04:00 +18°C° 1.4 mm 0 mps 672 mmHg 99%
05:00 +18°C° 1.7 mm 0 mps 673 mmHg 99%
06:00 +18°C° 1.7 mm 0 mps 673 mmHg 99%
07:00 +19°C° 1.7 mm 0 mps 674 mmHg 99%
08:00 +19°C° 1.3 mm 0 mps 674 mmHg 98%
09:00 +20°C° 1.3 mm 0 mps 674 mmHg 97%
10:00 +21°C° 1.3 mm 0 mps 675 mmHg 96%
11:00 +22°C° 1.1 mm 0 mps 674 mmHg 93%
12:00 +22°C° 1.1 mm 0 mps 673 mmHg 90%
13:00 +23°C° 1.1 mm 0 mps 673 mmHg 87%
14:00 +23°C° 0.7 mm 0 mps 672 mmHg 89%
15:00 +23°C° 0.7 mm 0 mps 672 mmHg 91%
16:00 +22°C° 0.7 mm 0 mps 672 mmHg 93%
17:00 +21°C° 0.9 mm 0 mps 672 mmHg 94%
18:00 +20°C° 0.9 mm 0 mps 672 mmHg 96%
19:00 +19°C° 0.9 mm 0 mps 672 mmHg 98%
20:00 +21°C° 0.5 mm 1 mps 673 mmHg 98%
21:00 +21°C° 0.5 mm 1 mps 673 mmHg 98%
22:00 +20°C° 0.5 mm 1 mps 674 mmHg 98%
23:00 +20°C° 1.1 mm 1 mps 673 mmHg 98%

Day after tomorrow, 27 November, Friday

Time Temperature Precipitation Wind Pressure Humidity
00:00 +20°C° 1.1 mm 1 mps 673 mmHg 98%
01:00 +20°C° 1.1 mm 1 mps 673 mmHg 98%
02:00 +20°C° 1.4 mm 1 mps 673 mmHg 98%
03:00 +20°C° 1.4 mm 1 mps 673 mmHg 98%
04:00 +20°C° 1.4 mm 1 mps 673 mmHg 98%
05:00 +20°C° 1.4 mm 1 mps 673 mmHg 98%
06:00 +20°C° 1.4 mm 1 mps 673 mmHg 98%
07:00 +18°C° 1.4 mm 0 mps 674 mmHg 99%
08:00 +19°C° 0.4 mm 0 mps 674 mmHg 97%
09:00 +19°C° 0.4 mm 0 mps 674 mmHg 96%
10:00 +20°C° 0.4 mm 0 mps 675 mmHg 95%
11:00 +21°C° 0.2 mm 0 mps 674 mmHg 91%
12:00 +21°C° 0.2 mm 0 mps 673 mmHg 87%
13:00 +22°C° 0.2 mm 0 mps 673 mmHg 83%
14:00 +22°C° 0.1 mm 0 mps 672 mmHg 83%
15:00 +24°C° 0.1 mm 1 mps 672 mmHg 83%
16:00 +24°C° 0.1 mm 1 mps 672 mmHg 83%
17:00 +23°C° 0.6 mm 1 mps 672 mmHg 88%
18:00 +22°C° 0.6 mm 1 mps 672 mmHg 93%
19:00 +19°C° 0.6 mm 0 mps 673 mmHg 98%
20:00 +19°C° 0.7 mm 0 mps 673 mmHg 98%
21:00 +18°C° 0.7 mm 0 mps 673 mmHg 98%
22:00 +18°C° 0.7 mm 0 mps 674 mmHg 99%
23:00 +18°C° 0.6 mm 0 mps 674 mmHg 98%

28 November, Saturday

Time Temperature Precipitation Wind Pressure Humidity
00:00 +18°C° 0.6 mm 0 mps 673 mmHg 98%
01:00 +18°C° 0.6 mm 0 mps 673 mmHg 98%
02:00 +18°C° 0.3 mm 0 mps 673 mmHg 98%
03:00 +18°C° 0.3 mm 0 mps 673 mmHg 98%
04:00 +18°C° 0.3 mm 0 mps 673 mmHg 98%
05:00 +18°C° 0.1 mm 0 mps 673 mmHg 97%
06:00 +18°C° 0.1 mm 0 mps 674 mmHg 97%
07:00 +18°C° 0.1 mm 0 mps 674 mmHg 97%
08:00 +19°C° 0.1 mm 0 mps 675 mmHg 93%
09:00 +20°C° 0.1 mm 0 mps 675 mmHg 89%
10:00 +21°C° 0.1 mm 0 mps 675 mmHg 85%
11:00 +25°C° 0.2 mm 1 mps 674 mmHg 77%
12:00 +27°C° 0.2 mm 1 mps 674 mmHg 70%
13:00 +28°C° 0.2 mm 1 mps 673 mmHg 62%
14:00 +27°C° 1.1 mm 1 mps 673 mmHg 72%
15:00 +26°C° 1.1 mm 1 mps 672 mmHg 83%
16:00 +24°C° 1.1 mm 1 mps 671 mmHg 93%
17:00 +23°C° 0.5 mm 1 mps 672 mmHg 95%
18:00 +22°C° 0.5 mm 1 mps 672 mmHg 96%
19:00 +21°C° 0.5 mm 1 mps 672 mmHg 98%
20:00 +21°C° 0.4 mm 1 mps 673 mmHg 98%
21:00 +20°C° 0.4 mm 1 mps 673 mmHg 98%
22:00 +20°C° 0.4 mm 1 mps 674 mmHg 98%
23:00 +20°C° 0.5 mm 1 mps 674 mmHg 99%

29 November, Sunday

Time Temperature Precipitation Wind Pressure Humidity
00:00 +20°C° 0.5 mm 1 mps 673 mmHg 99%
01:00 +20°C° 0.5 mm 1 mps 673 mmHg 99%
02:00 +20°C° 0.6 mm 1 mps 673 mmHg 99%
03:00 +18°C° 0.6 mm 0 mps 673 mmHg 98%
04:00 +18°C° 0.6 mm 0 mps 673 mmHg 98%
05:00 +18°C° 0.2 mm 0 mps 673 mmHg 98%
06:00 +18°C° 0.2 mm 0 mps 674 mmHg 98%
07:00 +18°C° 0.2 mm 0 mps 674 mmHg 97%
08:00 +19°C° 0.6 mm 0 mps 675 mmHg 96%
09:00 +20°C° 0.6 mm 0 mps 675 mmHg 94%
10:00 +23°C° 0.6 mm 1 mps 675 mmHg 92%
11:00 +21°C° 1.5 mm 0 mps 674 mmHg 93%
12:00 +21°C° 1.5 mm 0 mps 674 mmHg 93%
13:00 +21°C° 1.5 mm 0 mps 673 mmHg 94%
14:00 +22°C° 0.6 mm 0 mps 673 mmHg 93%
15:00 +22°C° 0.6 mm 0 mps 672 mmHg 92%
16:00 +22°C° 0.6 mm 0 mps 672 mmHg 91%
17:00 +21°C° 0.9 mm 0 mps 673 mmHg 94%
18:00 +20°C° 0.9 mm 0 mps 673 mmHg 96%
19:00 +19°C° 0.9 mm 0 mps 673 mmHg 98%
20:00 +19°C° 1.2 mm 0 mps 674 mmHg 98%
21:00 +19°C° 1.2 mm 0 mps 674 mmHg 98%
22:00 +19°C° 1.2 mm 0 mps 674 mmHg 98%
23:00 +19°C° 1.3 mm 0 mps 674 mmHg 98%

30 November, Monday

Time Temperature Precipitation Wind Pressure Humidity
00:00 +18°C° 1.3 mm 0 mps 674 mmHg 98%
01:00 +18°C° 1.3 mm 0 mps 674 mmHg 98%
02:00 +18°C° 0.7 mm 0 mps 673 mmHg 98%
03:00 +18°C° 0.7 mm 0 mps 673 mmHg 98%
04:00 +18°C° 0.7 mm 0 mps 673 mmHg 98%
05:00 +18°C° 0.3 mm 0 mps 673 mmHg 98%
06:00 +18°C° 0.3 mm 0 mps 674 mmHg 98%
07:00 +18°C° 0.3 mm 0 mps 674 mmHg 97%
08:00 +20°C° 0.8 mm 0 mps 675 mmHg 94%
09:00 +21°C° 0.8 mm 0 mps 675 mmHg 91%
10:00 +25°C° 0.8 mm 1 mps 675 mmHg 88%
11:00 +25°C° 1.4 mm 1 mps 675 mmHg 88%
12:00 +25°C° 1.4 mm 1 mps 674 mmHg 87%
13:00 +26°C° 1.4 mm 1 mps 673 mmHg 87%
14:00 +25°C° 1.5 mm 1 mps 672 mmHg 90%
15:00 +25°C° 1.5 mm 1 mps 672 mmHg 92%
16:00 +24°C° 1.5 mm 1 mps 671 mmHg 95%
17:00 +23°C° 0.4 mm 1 mps 672 mmHg 96%
18:00 +22°C° 0.4 mm 1 mps 672 mmHg 97%
19:00 +21°C° 0.4 mm 1 mps 672 mmHg 98%
20:00 +21°C° 0.7 mm 1 mps 673 mmHg 98%
21:00 +20°C° 0.7 mm 1 mps 673 mmHg 98%
22:00 +20°C° 0.7 mm 1 mps 674 mmHg 98%
23:00 +20°C° 0.7 mm 1 mps 674 mmHg 98%
Show more

We Need Your Consent

Meteoprog and our Service Providers may store and access personal data such as cookies, device identifiers or other similar technologies on your device and process such data to personalise content and ads, as well as provide social media features and to analyse the traffic.

  • Store and/or access information on your device

    Cookies, device identifiers or other information can be stored or accessed on your device for the purposes indicated above.

  • Personalised ads and content, ad and content measurement, audience insights, and products development

    Ads and content can be personalised based on a profile. More data can be added to better personalise ads and content. Ad and content performance can be measured. Insights about the audience who saw the ads and content can be derived. Such data can be used to develop or improve user’s experience, systems and software.

By clicking ‘I Agree’ you will allow the use of indicated cookies, device identifiers, web beacons or other similar technologies. Your settings can be changed in the browser on your device.

For certain purposes, legitimate interests may be relied on, rather than consent. You can read more about this in our Privacy and Cookie Policy.